Location: Unspecified
(0.0000°N, 0.0000°E)
Time: 17:24:36
(UTC+00:00)

ISS - Pass Details

Date: 16 January 2020
Orbit: 415 x 422 km, 51.6° (Epoch: 23 January)

Event Time Altitude Azimuth Distance (km) Brightness Sun altitude
Exits shadow 05:30:55 - 340° (NNW) 2,041 -0.7 -9.0°
Reaches altitude 10° 05:32:22 10° 348° (NNW) 1,475 -1.3 -8.7°
Maximum altitude 05:35:25 34° 55° (NE) 703 -2.3 -8.0°
Drops below altitude 10° 05:38:28 10° 121° (ESE) 1,484 0.7 -7.2°
Sets 05:40:41 0° 131° (SE) 2,349 1.6 -6.7°
